To NAV CANADA Home Page Login to a new session Search on AWWS site Feedback and Comments Disclaimer Vers la page française équivalente Tips FAQ What's new on the site To the Forecasts and Observations / NOTAM section To "File a Flight Plan" website Publications and other links Update of the User's profile FIC Telephone Numbers My Weather Data Folder Route Weather Data Regional Weather Data Local Weather Data To the Forecasts and Observations / NOTAM section
Request Generated 09/30/2016 at 23:46:29 UTC . Weather information available at that time is displayed.

METAR/TAF

UMIUJAQ/QC    

LWIS CYMU 302300Z AUTO 23014G20KT 07/06 A3032=
LWIS CYMU 302200Z AUTO 23017KT 08/07 A3033=
METAR CYMU 302100Z 23017G22KT 15SM FEW005 FEW060 SCT140 SCT260 08/07
A3033 RMK ST1SC2AC1CI1 ST TR CI TR LAST STFD OBS/NEXT 01 1200 UTC
SLP278=

CYMU - No TAF is issued for this station

Your time UTC time
Weather data provided by Environment Canada and NAV CANADA